TimeCST,TemperatureF,Dew PointF,Humidity,Sea Level PressureIn,VisibilityMPH,Wind Direction,Wind SpeedMPH,Gust SpeedMPH,PrecipitationIn,Events,Conditions,WindDirDegrees,DateUTC
12:29 AM,26.6,14.0,59,30.34,10.0,East,5.8,-,N/A,,Overcast,100,2000-01-17 06:29:00
12:50 AM,26.6,15.8,64,30.33,10.0,ESE,6.9,-,N/A,,Overcast,120,2000-01-17 06:50:00
1:12 AM,26.6,14.0,59,30.31,10.0,East,8.1,-,N/A,,Overcast,90,2000-01-17 07:12:00
1:32 AM,28.4,15.8,59,30.30,10.0,ESE,6.9,-,N/A,,Overcast,110,2000-01-17 07:32:00
1:49 AM,28.4,15.8,59,30.30,10.0,ESE,6.9,-,N/A,,Overcast,110,2000-01-17 07:49:00
2:10 AM,28.4,15.8,59,30.29,10.0,ESE,6.9,-,N/A,,Overcast,120,2000-01-17 08:10:00
2:29 AM,28.4,15.8,59,30.29,10.0,Calm,Calm,-,N/A,,Overcast,0,2000-01-17 08:29:00
2:50 AM,28.4,15.8,59,30.28,10.0,East,4.6,-,N/A,,Overcast,90,2000-01-17 08:50:00
3:09 AM,28.4,17.6,64,30.28,10.0,East,4.6,-,N/A,,Overcast,80,2000-01-17 09:09:00
3:30 AM,28.4,17.6,64,30.26,10.0,East,4.6,-,N/A,,Overcast,90,2000-01-17 09:30:00
3:51 AM,28.4,19.4,69,30.25,10.0,ESE,4.6,-,N/A,,Overcast,110,2000-01-17 09:51:00
4:09 AM,28.4,19.4,69,30.26,10.0,East,4.6,-,N/A,,Overcast,90,2000-01-17 10:09:00
5:09 AM,28.4,21.2,74,30.26,7.0,ENE,3.5,-,N/A,,Overcast,60,2000-01-17 11:09:00
5:30 AM,28.4,21.2,74,30.25,7.0,ENE,4.6,-,N/A,,Overcast,70,2000-01-17 11:30:00
5:49 AM,28.4,24.8,86,30.25,5.0,ENE,4.6,-,N/A,,Overcast,60,2000-01-17 11:49:00
6:28 AM,28.4,24.8,86,30.23,3.5,East,5.8,-,N/A,,Overcast,100,2000-01-17 12:28:00
7:11 AM,28.4,24.8,86,30.22,2.5,East,4.6,-,N/A,,Overcast,100,2000-01-17 13:11:00
7:31 AM,28.4,24.8,86,30.23,2.0,East,4.6,-,N/A,,Overcast,90,2000-01-17 13:31:00
7:51 AM,28.4,24.8,86,30.22,1.8,East,4.6,-,N/A,,Overcast,100,2000-01-17 13:51:00
8:14 AM,28.4,24.8,86,30.21,1.2,SE,5.8,-,N/A,,Overcast,140,2000-01-17 14:14:00
8:35 AM,28.4,24.8,86,30.22,1.2,Calm,Calm,-,N/A,,Overcast,0,2000-01-17 14:35:00
8:50 AM,28.4,26.6,93,30.22,1.5,SSE,4.6,-,N/A,,Overcast,160,2000-01-17 14:50:00
9:31 AM,30.2,26.6,86,30.23,1.8,South,3.5,-,N/A,,Overcast,180,2000-01-17 15:31:00
9:50 AM,30.2,26.6,86,30.24,2.0,Calm,Calm,-,N/A,,Overcast,0,2000-01-17 15:50:00
10:11 AM,30.2,26.6,86,30.24,2.5,Calm,Calm,-,N/A,,Overcast,0,2000-01-17 16:11:00
10:32 AM,30.2,26.6,86,30.23,3.0,South,3.5,-,N/A,,Overcast,190,2000-01-17 16:32:00
10:50 AM,30.2,26.6,86,30.21,3.0,Calm,Calm,-,N/A,,Overcast,0,2000-01-17 16:50:00
11:10 AM,32.0,28.4,87,30.22,3.5,Calm,Calm,-,N/A,,Overcast,0,2000-01-17 17:10:00
11:33 AM,33.8,26.6,75,30.20,4.0,West,3.5,-,N/A,,Overcast,280,2000-01-17 17:33:00
12:10 PM,33.8,28.4,81,30.18,5.0,WSW,3.5,-,N/A,,Overcast,250,2000-01-17 18:10:00
12:31 PM,35.6,28.4,75,30.17,7.0,West,5.8,-,N/A,,Overcast,260,2000-01-17 18:31:00
12:50 PM,35.6,26.6,70,30.15,7.0,WSW,3.5,-,N/A,,Mostly Cloudy,240,2000-01-17 18:50:00
1:10 PM,37.4,28.4,70,30.15,7.0,NW,3.5,-,N/A,,Mostly Cloudy,310,2000-01-17 19:10:00
1:36 PM,39.2,28.4,65,30.15,10.0,West,3.5,-,N/A,,Scattered Clouds,270,2000-01-17 19:36:00
1:54 PM,39.2,28.4,65,30.13,10.0,West,3.5,-,N/A,,Scattered Clouds,270,2000-01-17 19:54:00
2:12 PM,39.2,26.6,61,30.13,10.0,WNW,6.9,-,N/A,,Clear,300,2000-01-17 20:12:00
2:31 PM,41.0,28.4,61,30.12,10.0,NW,6.9,-,N/A,,Clear,320,2000-01-17 20:31:00
2:54 PM,42.8,26.6,53,30.12,10.0,WNW,3.5,-,N/A,,Clear,300,2000-01-17 20:54:00
3:11 PM,42.8,26.6,53,30.13,10.0,WNW,4.6,-,N/A,,Clear,290,2000-01-17 21:11:00
3:30 PM,42.8,26.6,53,30.13,10.0,West,3.5,-,N/A,,Clear,280,2000-01-17 21:30:00
4:11 PM,42.8,26.6,53,30.14,10.0,NNW,8.1,-,N/A,,Clear,340,2000-01-17 22:11:00
4:30 PM,42.8,24.8,49,30.14,10.0,NNW,5.8,-,N/A,,Clear,340,2000-01-17 22:30:00
4:55 PM,39.2,24.8,56,30.14,10.0,North,3.5,-,N/A,,Clear,360,2000-01-17 22:55:00
5:10 PM,39.2,24.8,56,30.14,10.0,North,3.5,-,N/A,,Clear,10,2000-01-17 23:10:00
5:30 PM,39.2,24.8,56,30.14,10.0,Calm,Calm,-,N/A,,Clear,0,2000-01-17 23:30:00
5:52 PM,37.4,21.2,52,30.14,10.0,ENE,4.6,-,N/A,,Clear,70,2000-01-17 23:52:00
6:11 PM,37.4,24.8,60,30.14,10.0,East,5.8,-,N/A,,Clear,80,2000-01-18 00:11:00
6:30 PM,35.6,24.8,65,30.15,10.0,ENE,3.5,-,N/A,,Clear,70,2000-01-18 00:30:00
6:51 PM,33.8,23.0,65,30.16,10.0,ENE,6.9,-,N/A,,Clear,70,2000-01-18 00:51:00
7:11 PM,30.2,23.0,75,30.17,10.0,East,5.8,-,N/A,,Clear,80,2000-01-18 01:11:00
7:35 PM,30.2,23.0,75,30.17,7.0,East,4.6,-,N/A,,Clear,100,2000-01-18 01:35:00
7:51 PM,30.2,24.8,80,30.17,7.0,ESE,6.9,-,N/A,,Clear,120,2000-01-18 01:51:00
8:50 PM,28.4,24.8,86,30.17,7.0,ESE,4.6,-,N/A,,Clear,120,2000-01-18 02:50:00
9:31 PM,24.8,17.6,74,30.19,5.0,Calm,Calm,-,N/A,,Clear,0,2000-01-18 03:31:00
9:50 PM,21.2,17.6,86,30.18,5.0,Calm,Calm,-,N/A,,Clear,0,2000-01-18 03:50:00
10:34 PM,23.0,19.4,86,30.17,4.0,Calm,Calm,-,N/A,,Clear,0,2000-01-18 04:34:00
10:51 PM,23.0,19.4,86,30.18,5.0,Calm,Calm,-,N/A,,Clear,0,2000-01-18 04:51:00
11:11 PM,23.0,17.6,80,30.17,7.0,Calm,Calm,-,N/A,,Clear,0,2000-01-18 05:11:00
11:31 PM,21.2,17.6,86,30.18,4.0,Calm,Calm,-,N/A,,Clear,0,2000-01-18 05:31:00
11:51 PM,21.2,17.6,86,30.18,5.0,Calm,Calm,-,N/A,,Clear,0,2000-01-18 05:51:00